| time (UTC) | temp F | wind direction | speed MPH | gust MPH | rain 1hr in | rain 24hr in | rain mn in | humidity % | barometer mb |
| 20260906004018 | 52 | 117 | 0.0 | 0.0 | 0.00 | 0.00 | 0.00 | 61 | 1021.6 |
| 20260906003518 | 52 | 117 | 0.0 | 0.0 | 0.00 | 0.00 | 0.00 | 61 | 1021.6 |
| 20260906003046 | 52 | 117 | 0.0 | 0.0 | 0.00 | 0.00 | 0.00 | 61 | 1021.6 |
| 20260906002020 | 52 | 117 | 0.0 | 0.0 | 0.00 | 0.00 | 0.00 | 61 | 1021.6 |
| 20260906001600 | 52 | 117 | 0.0 | 0.0 | 0.00 | 0.00 | 0.00 | 60 | 1021.6 |
| 20260906001018 | 52 | 117 | 0.0 | 0.0 | 0.00 | 0.00 | 0.00 | 60 | 1021.5 |
| 20260906000523 | 52 | 117 | 0.0 | 0.0 | 0.00 | 0.00 | 0.00 | 60 | 1021.5 |
| 20260906000049 | 52 | 117 | 0.0 | 0.0 | 0.00 | 0.00 | 0.00 | 60 | 1021.4 |
| 20260905235519 | 52 | 117 | 0.0 | 0.0 | 0.00 | 0.00 | 0.00 | 61 | 1021.4 |
| 20260905235019 | 52 | 117 | 0.0 | 0.0 | 0.00 | 0.00 | 0.00 | 63 | 1021.6 |
| 20260905234547 | 52 | 117 | 0.0 | 0.0 | 0.00 | 0.00 | 0.00 | 63 | 1021.5 |
| 20260905234019 | 52 | 117 | 0.0 | 8.0 | 0.00 | 0.00 | 0.00 | 62 | 1021.5 |
| 20260905233516 | 53 | 117 | 0.0 | 2.0 | 0.00 | 0.00 | 0.00 | 61 | 1021.7 |
| 20260905233102 | 54 | 117 | 0.0 | 0.0 | 0.00 | 0.00 | 0.00 | 61 | 1021.7 |
| 20260905232517 | 54 | 116 | 0.0 | 0.0 | 0.00 | 0.00 | 0.00 | 60 | 1021.7 |
| 20260905231551 | 56 | 116 | 0.0 | 3.0 | 0.00 | 0.00 | 0.00 | 52 | 1021.7 |
| 20260905231019 | 56 | 116 | 0.0 | 6.0 | 0.00 | 0.00 | 0.00 | 52 | 1021.6 |
| 20260905230520 | 56 | 117 | 0.0 | 0.0 | 0.00 | 0.00 | 0.00 | 51 | 1021.6 |
| 20260905230048 | 57 | 117 | 0.0 | 3.0 | 0.00 | 0.00 | 0.00 | 50 | 1021.5 |
| 20260905225518 | 57 | 116 | 0.0 | 3.0 | 0.00 | 0.00 | 0.00 | 51 | 1021.7 |
| 20260905225020 | 57 | 117 | 0.0 | 3.0 | 0.00 | 0.00 | 0.00 | 50 | 1021.6 |
| 20260905224604 | 57 | 117 | 0.0 | 4.0 | 0.00 | 0.00 | 0.00 | 50 | 1021.7 |
| 20260905224020 | 57 | 117 | 0.0 | 6.0 | 0.00 | 0.00 | 0.00 | 51 | 1021.7 |
| 20260905223518 | 56 | 118 | 2.0 | 6.0 | 0.00 | 0.00 | 0.00 | 51 | 1021.8 |
| 20260905223054 | 56 | 117 | 0.0 | 10.0 | 0.00 | 0.00 | 0.00 | 50 | 1021.7 |
| 20260905222524 | 55 | 117 | 0.0 | 6.0 | 0.00 | 0.00 | 0.00 | 55 | 1021.8 |
| 20260905222022 | 55 | 117 | 0.0 | 6.0 | 0.00 | 0.00 | 0.00 | 52 | 1021.7 |
| 20260905221542 | 54 | 117 | 0.0 | 0.0 | 0.00 | 0.00 | 0.00 | 54 | 1021.7 |
| 20260905221018 | 54 | 117 | 0.0 | 0.0 | 0.00 | 0.00 | 0.00 | 54 | 1021.7 |
| 20260905220522 | 54 | 117 | 0.0 | 0.0 | 0.00 | 0.00 | 0.00 | 53 | 1021.9 |
| 20260905220051 | 54 | 117 | 0.0 | 3.0 | 0.00 | 0.00 | 0.00 | 53 | 1021.9 |
| 20260905215518 | 54 | 117 | 0.0 | 3.0 | 0.00 | 0.00 | 0.00 | 52 | 1021.9 |
| 20260905215018 | 55 | 117 | 0.0 | 4.0 | 0.00 | 0.00 | 0.00 | 53 | 1022.0 |
| 20260905214557 | 55 | 118 | 0.0 | 4.0 | 0.00 | 0.00 | 0.00 | 52 | 1022.1 |
| 20260905213518 | 56 | 117 | 0.0 | 0.0 | 0.00 | 0.00 | 0.00 | 53 | 1022.1 |
| 20260905213052 | 56 | 117 | 0.0 | 0.0 | 0.00 | 0.00 | 0.00 | 54 | 1022.1 |
| 20260905212520 | 55 | 117 | 0.0 | 0.0 | 0.00 | 0.00 | 0.00 | 57 | 1022.0 |
| 20260905212022 | 54 | 117 | 0.0 | 0.0 | 0.00 | 0.00 | 0.00 | 59 | 1022.0 |
| 20260905211543 | 54 | 117 | 0.0 | 0.0 | 0.00 | 0.00 | 0.00 | 57 | 1022.0 |
| 20260905211019 | 53 | 116 | 0.0 | 0.0 | 0.00 | 0.00 | 0.00 | 55 | 1022.1 |
| 20260905210519 | 53 | 117 | 0.0 | 0.0 | 0.00 | 0.00 | 0.00 | 56 | 1022.2 |
| 20260905210049 | 53 | 117 | 0.0 | 0.0 | 0.00 | 0.00 | 0.00 | 58 | 1022.1 |
| 20260905205518 | 53 | 116 | 0.0 | 0.0 | 0.00 | 0.00 | 0.00 | 58 | 1022.1 |
| 20260905205021 | 53 | 117 | 0.0 | 0.0 | 0.00 | 0.00 | 0.00 | 55 | 1022.0 |
| 20260905204544 | 52 | 117 | 0.0 | 0.0 | 0.00 | 0.00 | 0.00 | 58 | 1022.0 |
| 20260905204017 | 52 | 118 | 0.0 | 0.0 | 0.00 | 0.00 | 0.00 | 60 | 1021.9 |
| 20260905203052 | 52 | 117 | 0.0 | 0.0 | 0.00 | 0.00 | 0.00 | 60 | 1021.9 |
| 20260905202518 | 52 | 117 | 0.0 | 0.0 | 0.00 | 0.00 | 0.00 | 61 | 1021.9 |
| 20260905202017 | 53 | 118 | 0.0 | 0.0 | 0.00 | 0.00 | 0.00 | 61 | 1021.8 |
| 20260905201551 | 53 | 117 | 0.0 | 0.0 | 0.00 | 0.00 | 0.00 | 61 | 1021.9 |
| 20260905201019 | 53 | 117 | 0.0 | 0.0 | 0.00 | 0.00 | 0.00 | 60 | 1021.9 |
| 20260905200517 | 53 | 117 | 0.0 | 0.0 | 0.00 | 0.00 | 0.00 | 61 | 1022.0 |
| 20260905200050 | 53 | 117 | 0.0 | 3.0 | 0.00 | 0.00 | 0.00 | 59 | 1022.0 |
| 20260905195519 | 53 | 117 | 0.0 | 0.0 | 0.00 | 0.00 | 0.00 | 59 | 1022.1 |
| 20260905195017 | 53 | 117 | 0.0 | 6.0 | 0.00 | 0.00 | 0.00 | 60 | 1022.2 |
| 20260905194548 | 53 | 118 | 0.0 | 0.0 | 0.00 | 0.00 | 0.00 | 60 | 1022.2 |
| 20260905194019 | 53 | 117 | 0.0 | 0.0 | 0.00 | 0.00 | 0.00 | 61 | 1022.2 |
| 20260905193517 | 53 | 117 | 0.0 | 0.0 | 0.00 | 0.00 | 0.00 | 60 | 1022.2 |
| 20260905193053 | 53 | 117 | 0.0 | 0.0 | 0.00 | 0.00 | 0.00 | 59 | 1022.2 |
| 20260905192020 | 53 | 117 | 0.0 | 8.0 | 0.00 | 0.00 | 0.00 | 62 | 1022.2 |
| 20260905191552 | 53 | 118 | 0.0 | 8.0 | 0.00 | 0.00 | 0.00 | 61 | 1022.1 |
| 20260905191019 | 52 | 117 | 0.0 | 0.0 | 0.00 | 0.00 | 0.00 | 64 | 1022.2 |
| 20260905190522 | 51 | 119 | 0.0 | 0.0 | 0.00 | 0.00 | 0.00 | 66 | 1022.1 |
| 20260905190105 | 51 | 117 | 0.0 | 0.0 | 0.00 | 0.00 | 0.00 | 67 | 1022.0 |
| 20260905185517 | 51 | 117 | 0.0 | 0.0 | 0.00 | 0.00 | 0.00 | 66 | 1022.2 |
| 20260905185017 | 51 | 118 | 0.0 | 0.0 | 0.00 | 0.00 | 0.00 | 64 | 1022.1 |
| 20260905184602 | 52 | 117 | 0.0 | 0.0 | 0.00 | 0.00 | 0.00 | 66 | 1022.2 |
| 20260905184018 | 52 | 117 | 0.0 | 1.0 | 0.00 | 0.00 | 0.00 | 65 | 1022.2 |
| 20260905183518 | 53 | 117 | 0.0 | 6.0 | 0.00 | 0.00 | 0.00 | 64 | 1022.5 |
| 20260905183054 | 54 | 117 | 0.0 | 6.0 | 0.00 | 0.00 | 0.00 | 62 | 1022.3 |
| 20260905182517 | 55 | 117 | 0.0 | 8.0 | 0.00 | 0.00 | 0.00 | 62 | 1022.4 |
| 20260905182019 | 56 | 118 | 1.0 | 8.0 | 0.00 | 0.00 | 0.00 | 62 | 1022.4 |
| 20260905181550 | 55 | 117 | 1.0 | 6.0 | 0.00 | 0.00 | 0.00 | 63 | 1022.4 |
| 20260905181019 | 54 | 118 | 0.0 | 9.0 | 0.00 | 0.00 | 0.00 | 64 | 1022.4 |
| 20260905180518 | 54 | 118 | 2.0 | 8.0 | 0.00 | 0.00 | 0.00 | 63 | 1022.5 |
| 20260905180057 | 54 | 118 | 0.0 | 8.0 | 0.00 | 0.00 | 0.00 | 61 | 1022.7 |
| 20260905175518 | 55 | 118 | 1.0 | 6.0 | 0.00 | 0.00 | 0.00 | 63 | 1022.5 |
| 20260905175020 | 55 | 119 | 0.0 | 8.0 | 0.00 | 0.00 | 0.00 | 63 | 1022.3 |
| 20260905174558 | 54 | 117 | 1.0 | 8.0 | 0.00 | 0.00 | 0.00 | 61 | 1022.4 |
| 20260905174019 | 54 | 117 | 1.0 | 7.0 | 0.00 | 0.00 | 0.00 | 64 | 1022.2 |
| 20260905173520 | 53 | 117 | 0.0 | 3.0 | 0.00 | 0.00 | 0.00 | 65 | 1022.3 |
| 20260905173048 | 53 | 118 | 0.0 | 0.0 | 0.00 | 0.00 | 0.00 | 65 | 1022.1 |
| 20260905172518 | 52 | 117 | 0.0 | 0.0 | 0.00 | 0.00 | 0.00 | 68 | 1022.3 |
| 20260905172017 | 52 | 117 | 0.0 | 0.0 | 0.00 | 0.00 | 0.00 | 66 | 1022.4 |
| 20260905171545 | 52 | 117 | 0.0 | 0.0 | 0.00 | 0.00 | 0.00 | 65 | 1022.2 |
| 20260905171017 | 52 | 117 | 0.0 | 0.0 | 0.00 | 0.00 | 0.00 | 65 | 1022.3 |
| 20260905170056 | 51 | 117 | 0.0 | 0.0 | 0.00 | 0.00 | 0.00 | 64 | 1022.1 |
| 20260905165017 | 50 | 117 | 0.0 | 0.0 | 0.00 | 0.00 | 0.00 | 69 | 1022.3 |
| 20260905164551 | 50 | 117 | 0.0 | 0.0 | 0.00 | 0.00 | 0.00 | 66 | 1022.4 |
| 20260905164020 | 50 | 117 | 0.0 | 0.0 | 0.00 | 0.00 | 0.00 | 67 | 1022.3 |
| 20260905163519 | 50 | 117 | 0.0 | 0.0 | 0.00 | 0.00 | 0.00 | 68 | 1022.1 |
| 20260905163101 | 50 | 117 | 0.0 | 0.0 | 0.00 | 0.00 | 0.00 | 67 | 1022.1 |
| 20260905161554 | 49 | 117 | 0.0 | 0.0 | 0.00 | 0.00 | 0.00 | 70 | 1022.1 |
| 20260905161018 | 49 | 117 | 0.0 | 0.0 | 0.00 | 0.00 | 0.00 | 69 | 1022.2 |
| 20260905160519 | 50 | 117 | 0.0 | 0.0 | 0.00 | 0.00 | 0.00 | 68 | 1022.1 |
| 20260905160054 | 50 | 117 | 0.0 | 0.0 | 0.00 | 0.00 | 0.00 | 67 | 1021.9 |
| 20260905155519 | 51 | 118 | 0.0 | 0.0 | 0.00 | 0.00 | 0.00 | 65 | 1022.0 |
| 20260905155020 | 52 | 117 | 0.0 | 0.0 | 0.00 | 0.00 | 0.00 | 65 | 1021.9 |
| 20260905154544 | 52 | 117 | 0.0 | 0.0 | 0.00 | 0.00 | 0.00 | 66 | 1021.9 |
| 20260905153056 | 50 | 117 | 0.0 | 0.0 | 0.00 | 0.00 | 0.00 | 65 | 1022.0 |
| 20260905152520 | 50 | 117 | 0.0 | 0.0 | 0.00 | 0.00 | 0.00 | 67 | 1022.0 |
| 20260905152020 | 50 | 117 | 0.0 | 0.0 | 0.00 | 0.00 | 0.00 | 66 | 1022.0 |
| 20260905151550 | 50 | 117 | 0.0 | 0.0 | 0.00 | 0.00 | 0.00 | 65 | 1021.9 |
| 20260905151018 | 50 | 117 | 0.0 | 0.0 | 0.00 | 0.00 | 0.00 | 65 | 1022.0 |
| 20260905150519 | 50 | 117 | 0.0 | 0.0 | 0.00 | 0.00 | 0.00 | 68 | 1021.9 |
| 20260905150050 | 49 | 117 | 0.0 | 0.0 | 0.00 | 0.00 | 0.00 | 68 | 1021.7 |
| 20260905145517 | 48 | 117 | 0.0 | 0.0 | 0.00 | 0.00 | 0.00 | 71 | 1021.9 |
| 20260905145018 | 47 | 116 | 0.0 | 0.0 | 0.00 | 0.00 | 0.00 | 73 | 1021.9 |
| 20260905144558 | 46 | 116 | 0.0 | 0.0 | 0.00 | 0.00 | 0.00 | 72 | 1021.9 |
| 20260905143049 | 46 | 116 | 0.0 | 0.0 | 0.00 | 0.00 | 0.00 | 75 | 1021.8 |
| 20260905142523 | 46 | 116 | 0.0 | 0.0 | 0.00 | 0.00 | 0.00 | 74 | 1021.7 |
| 20260905142019 | 45 | 116 | 0.0 | 0.0 | 0.00 | 0.00 | 0.00 | 75 | 1021.8 |
| 20260905141548 | 45 | 116 | 0.0 | 0.0 | 0.00 | 0.00 | 0.00 | 76 | 1021.8 |
| 20260905140057 | 44 | 116 | 0.0 | 0.0 | 0.00 | 0.00 | 0.00 | 78 | 1021.9 |
| 20260905135518 | 43 | 116 | 0.0 | 0.0 | 0.00 | 0.00 | 0.00 | 79 | 1021.9 |
| 20260905135018 | 43 | 116 | 0.0 | 0.0 | 0.00 | 0.00 | 0.00 | 79 | 1021.9 |
| 20260905134550 | 42 | 116 | 0.0 | 0.0 | 0.00 | 0.00 | 0.00 | 80 | 1022.0 |
| 20260905134019 | 42 | 116 | 0.0 | 0.0 | 0.00 | 0.00 | 0.00 | 80 | 1021.9 |
| 20260905133519 | 42 | 116 | 0.0 | 0.0 | 0.00 | 0.00 | 0.00 | 80 | 1021.9 |
| 20260905133048 | 42 | 116 | 0.0 | 0.0 | 0.00 | 0.00 | 0.00 | 80 | 1021.9 |
| 20260905132517 | 42 | 116 | 0.0 | 0.0 | 0.00 | 0.00 | 0.00 | 80 | 1021.9 |
| 20260905132016 | 42 | 116 | 0.0 | 0.0 | 0.00 | 0.00 | 0.00 | 80 | 1021.9 |
| 20260905131619 | 42 | 116 | 0.0 | 0.0 | 0.00 | 0.00 | 0.00 | 80 | 1021.9 |
| 20260905130055 | 42 | 116 | 0.0 | 0.0 | 0.00 | 0.00 | 0.00 | 80 | 1021.8 |
| 20260905125518 | 42 | 116 | 0.0 | 0.0 | 0.00 | 0.00 | 0.00 | 80 | 1021.8 |
| 20260905125019 | 42 | 116 | 0.0 | 0.0 | 0.00 | 0.00 | 0.00 | 80 | 1021.8 |
| 20260905124551 | 42 | 116 | 0.0 | 0.0 | 0.00 | 0.00 | 0.00 | 80 | 1021.8 |
| 20260905124017 | 42 | 116 | 0.0 | 0.0 | 0.00 | 0.00 | 0.00 | 80 | 1021.8 |
| 20260905123518 | 42 | 116 | 0.0 | 0.0 | 0.00 | 0.00 | 0.00 | 79 | 1021.8 |
| 20260905123056 | 42 | 116 | 0.0 | 0.0 | 0.00 | 0.00 | 0.00 | 79 | 1021.8 |
| 20260905122519 | 42 | 116 | 0.0 | 0.0 | 0.00 | 0.00 | 0.00 | 79 | 1021.8 |
| 20260905122017 | 42 | 116 | 0.0 | 0.0 | 0.00 | 0.00 | 0.00 | 78 | 1021.7 |
| 20260905121554 | 42 | 116 | 0.0 | 0.0 | 0.00 | 0.00 | 0.00 | 78 | 1021.7 |
| 20260905120054 | 42 | 116 | 0.0 | 0.0 | 0.00 | 0.00 | 0.00 | 76 | 1021.8 |
| 20260905115517 | 42 | 116 | 0.0 | 0.0 | 0.00 | 0.00 | 0.00 | 76 | 1021.7 |
| 20260905115019 | 42 | 116 | 0.0 | 0.0 | 0.00 | 0.00 | 0.00 | 75 | 1021.7 |
| 20260905114547 | 42 | 116 | 0.0 | 0.0 | 0.00 | 0.00 | 0.00 | 75 | 1021.7 |
| 20260905114016 | 42 | 116 | 0.0 | 0.0 | 0.00 | 0.00 | 0.00 | 75 | 1021.7 |
| 20260905113518 | 42 | 116 | 0.0 | 0.0 | 0.00 | 0.00 | 0.00 | 75 | 1021.7 |
| 20260905113044 | 42 | 116 | 0.0 | 0.0 | 0.00 | 0.00 | 0.00 | 75 | 1021.7 |
| 20260905111557 | 42 | 116 | 0.0 | 0.0 | 0.00 | 0.00 | 0.00 | 74 | 1021.6 |
| 20260905110517 | 42 | 116 | 0.0 | 0.0 | 0.00 | 0.00 | 0.00 | 74 | 1021.7 |
| 20260905110051 | 42 | 116 | 0.0 | 0.0 | 0.00 | 0.00 | 0.00 | 73 | 1021.7 |
| 20260905105518 | 43 | 116 | 0.0 | 0.0 | 0.00 | 0.00 | 0.00 | 73 | 1021.7 |
| 20260905105020 | 43 | 116 | 0.0 | 0.0 | 0.00 | 0.00 | 0.00 | 74 | 1021.6 |
| 20260905104546 | 43 | 116 | 0.0 | 0.0 | 0.00 | 0.00 | 0.00 | 74 | 1021.6 |
| 20260905104017 | 43 | 116 | 0.0 | 0.0 | 0.00 | 0.00 | 0.00 | 75 | 1021.7 |
| 20260905103525 | 43 | 116 | 0.0 | 0.0 | 0.00 | 0.00 | 0.00 | 75 | 1021.7 |
| 20260905103055 | 43 | 116 | 0.0 | 0.0 | 0.00 | 0.00 | 0.00 | 75 | 1021.6 |
| 20260905102020 | 42 | 116 | 0.0 | 0.0 | 0.00 | 0.00 | 0.00 | 75 | 1021.6 |
| 20260905101613 | 42 | 116 | 0.0 | 0.0 | 0.00 | 0.00 | 0.00 | 75 | 1021.6 |
| 20260905101020 | 42 | 116 | 0.0 | 0.0 | 0.00 | 0.00 | 0.00 | 75 | 1021.4 |
| 20260905095517 | 43 | 116 | 0.0 | 0.0 | 0.00 | 0.00 | 0.00 | 75 | 1021.4 |
| 20260905095019 | 43 | 116 | 0.0 | 0.0 | 0.00 | 0.00 | 0.00 | 74 | 1021.4 |
| 20260905094018 | 43 | 116 | 0.0 | 0.0 | 0.00 | 0.00 | 0.00 | 74 | 1021.3 |
| 20260905093516 | 43 | 116 | 0.0 | 0.0 | 0.00 | 0.00 | 0.00 | 74 | 1021.4 |
| 20260905092518 | 43 | 116 | 0.0 | 0.0 | 0.00 | 0.00 | 0.00 | 73 | 1021.4 |
| 20260905092022 | 43 | 116 | 0.0 | 0.0 | 0.00 | 0.00 | 0.00 | 73 | 1021.4 |
| 20260905091020 | 43 | 116 | 0.0 | 0.0 | 0.00 | 0.00 | 0.00 | 73 | 1021.5 |
| 20260905090519 | 43 | 116 | 0.0 | 0.0 | 0.00 | 0.00 | 0.00 | 72 | 1021.4 |
| 20260905090040 | 44 | 116 | 0.0 | 0.0 | 0.00 | 0.00 | 0.00 | 71 | 1021.3 |
| 20260905085516 | 44 | 116 | 0.0 | 0.0 | 0.00 | 0.00 | 0.00 | 71 | 1021.3 |
| 20260905085016 | 44 | 116 | 0.0 | 0.0 | 0.00 | 0.00 | 0.00 | 71 | 1021.2 |
| 20260905084557 | 44 | 116 | 0.0 | 0.0 | 0.00 | 0.00 | 0.00 | 71 | 1021.1 |
| 20260905084018 | 44 | 116 | 0.0 | 0.0 | 0.00 | 0.00 | 0.00 | 71 | 1021.2 |
| 20260905083516 | 44 | 116 | 0.0 | 0.0 | 0.00 | 0.00 | 0.00 | 71 | 1021.2 |
| 20260905082519 | 44 | 116 | 0.0 | 0.0 | 0.00 | 0.00 | 0.00 | 71 | 1021.1 |
| 20260905082017 | 44 | 116 | 0.0 | 0.0 | 0.00 | 0.00 | 0.00 | 71 | 1021.1 |
| 20260905081017 | 44 | 116 | 0.0 | 0.0 | 0.00 | 0.00 | 0.00 | 71 | 1021.0 |
| 20260905080517 | 44 | 116 | 0.0 | 0.0 | 0.00 | 0.00 | 0.00 | 71 | 1021.0 |
| 20260905075520 | 44 | 116 | 0.0 | 0.0 | 0.00 | 0.00 | 0.00 | 70 | 1020.9 |
| 20260905075015 | 44 | 116 | 0.0 | 0.0 | 0.00 | 0.00 | 0.00 | 70 | 1020.9 |
| 20260905074019 | 44 | 116 | 0.0 | 0.0 | 0.00 | 0.00 | 0.00 | 70 | 1020.8 |
| 20260905073523 | 44 | 116 | 0.0 | 0.0 | 0.00 | 0.00 | 0.00 | 70 | 1020.7 |
| 20260905073035 | 44 | 116 | 0.0 | 0.0 | 0.00 | 0.00 | 0.00 | 70 | 1020.8 |
| 20260905072520 | 44 | 116 | 0.0 | 0.0 | 0.00 | 0.00 | 0.00 | 71 | 1020.8 |
| 20260905072020 | 44 | 116 | 0.0 | 0.0 | 0.00 | 0.00 | 0.00 | 70 | 1020.8 |
| 20260905071020 | 45 | 116 | 0.0 | 0.0 | 0.00 | 0.00 | 0.00 | 70 | 1020.8 |
| 20260905070519 | 44 | 116 | 0.0 | 0.0 | 0.00 | 0.00 | 0.00 | 70 | 1020.8 |
| 20260905065517 | 44 | 116 | 0.0 | 0.0 | 0.00 | 0.00 | 0.00 | 70 | 1020.7 |
| 20260905065018 | 44 | 116 | 0.0 | 0.0 | 0.00 | 0.00 | 0.00 | 71 | 1020.8 |
| 20260905064018 | 44 | 116 | 0.0 | 0.0 | 0.00 | 0.00 | 0.00 | 72 | 1020.7 |
| 20260905063520 | 44 | 116 | 0.0 | 0.0 | 0.00 | 0.00 | 0.00 | 72 | 1020.6 |
| 20260905062522 | 44 | 116 | 0.0 | 0.0 | 0.00 | 0.00 | 0.00 | 71 | 1020.6 |
| 20260905062019 | 44 | 116 | 0.0 | 0.0 | 0.00 | 0.00 | 0.00 | 70 | 1020.6 |
| 20260905061022 | 45 | 116 | 0.0 | 0.0 | 0.00 | 0.00 | 0.00 | 69 | 1020.6 |
| 20260905060519 | 45 | 116 | 0.0 | 0.0 | 0.00 | 0.00 | 0.00 | 70 | 1020.6 |
| 20260905055521 | 45 | 116 | 0.0 | 0.0 | 0.00 | 0.00 | 0.00 | 70 | 1020.6 |
| 20260905055021 | 45 | 116 | 0.0 | 0.0 | 0.00 | 0.00 | 0.00 | 70 | 1020.6 |
| 20260905054538 | 45 | 116 | 0.0 | 0.0 | 0.00 | 0.00 | 0.00 | 70 | 1020.7 |
| 20260905054018 | 45 | 116 | 0.0 | 0.0 | 0.00 | 0.00 | 0.00 | 69 | 1020.6 |
| 20260905053516 | 45 | 116 | 0.0 | 0.0 | 0.00 | 0.00 | 0.00 | 69 | 1020.7 |
| 20260905053040 | 45 | 116 | 0.0 | 0.0 | 0.00 | 0.00 | 0.00 | 69 | 1020.6 |
| 20260905052018 | 45 | 116 | 0.0 | 0.0 | 0.00 | 0.00 | 0.00 | 69 | 1020.6 |
| 20260905051542 | 45 | 116 | 0.0 | 0.0 | 0.00 | 0.00 | 0.00 | 70 | 1020.6 |
| 20260905051019 | 45 | 116 | 0.0 | 0.0 | 0.00 | 0.00 | 0.00 | 70 | 1020.6 |
| 20260905050519 | 45 | 116 | 0.0 | 0.0 | 0.00 | 0.00 | 0.00 | 70 | 1020.5 |
| 20260905045518 | 45 | 116 | 0.0 | 0.0 | 0.00 | 0.00 | 0.00 | 69 | 1020.6 |
| 20260905045022 | 45 | 116 | 0.0 | 0.0 | 0.00 | 0.00 | 0.00 | 69 | 1020.5 |
| 20260905044538 | 45 | 116 | 0.0 | 0.0 | 0.00 | 0.00 | 0.00 | 69 | 1020.4 |
| 20260905044020 | 45 | 116 | 0.0 | 0.0 | 0.00 | 0.00 | 0.00 | 69 | 1020.6 |
| 20260905043516 | 45 | 116 | 0.0 | 0.0 | 0.00 | 0.00 | 0.00 | 68 | 1020.5 |
| 20260905043047 | 45 | 116 | 0.0 | 0.0 | 0.00 | 0.00 | 0.00 | 68 | 1020.5 |
| 20260905042017 | 45 | 116 | 0.0 | 0.0 | 0.00 | 0.00 | 0.00 | 68 | 1020.6 |
| 20260905041542 | 45 | 116 | 0.0 | 0.0 | 0.00 | 0.00 | 0.00 | 68 | 1020.5 |
| 20260905041019 | 45 | 116 | 0.0 | 0.0 | 0.00 | 0.00 | 0.00 | 68 | 1020.5 |
| 20260905040519 | 44 | 116 | 0.0 | 0.0 | 0.00 | 0.00 | 0.00 | 69 | 1020.6 |
| 20260905040045 | 44 | 116 | 0.0 | 0.0 | 0.00 | 0.00 | 0.00 | 69 | 1020.5 |
| 20260905035517 | 44 | 116 | 0.0 | 0.0 | 0.00 | 0.00 | 0.00 | 69 | 1020.4 |
| 20260905034547 | 45 | 116 | 0.0 | 0.0 | 0.00 | 0.00 | 0.00 | 69 | 1020.5 |
| 20260905033517 | 45 | 116 | 0.0 | 0.0 | 0.00 | 0.00 | 0.00 | 69 | 1020.4 |
| 20260905033042 | 44 | 116 | 0.0 | 0.0 | 0.00 | 0.00 | 0.00 | 70 | 1020.3 |
| 20260905032520 | 44 | 116 | 0.0 | 0.0 | 0.00 | 0.00 | 0.00 | 70 | 1020.3 |
| 20260905032018 | 44 | 116 | 0.0 | 0.0 | 0.00 | 0.00 | 0.00 | 70 | 1020.3 |
| 20260905031539 | 44 | 116 | 0.0 | 0.0 | 0.00 | 0.00 | 0.00 | 70 | 1020.2 |
| 20260905031018 | 44 | 116 | 0.0 | 0.0 | 0.00 | 0.00 | 0.00 | 70 | 1020.0 |
| 20260905030519 | 44 | 116 | 0.0 | 0.0 | 0.00 | 0.00 | 0.00 | 70 | 1019.8 |
| 20260905030043 | 44 | 116 | 0.0 | 0.0 | 0.00 | 0.00 | 0.00 | 70 | 1019.8 |
| 20260905024606 | 45 | 116 | 0.0 | 0.0 | 0.00 | 0.00 | 0.00 | 71 | 1019.9 |
| 20260905024018 | 45 | 116 | 0.0 | 0.0 | 0.00 | 0.00 | 0.00 | 71 | 1019.8 |
| 20260905023519 | 45 | 116 | 0.0 | 0.0 | 0.00 | 0.00 | 0.00 | 70 | 1019.8 |
| 20260905023045 | 46 | 116 | 0.0 | 0.0 | 0.00 | 0.00 | 0.00 | 69 | 1019.8 |
| 20260905022519 | 46 | 116 | 0.0 | 0.0 | 0.00 | 0.00 | 0.00 | 68 | 1019.7 |
| 20260905022017 | 47 | 116 | 0.0 | 0.0 | 0.00 | 0.00 | 0.00 | 67 | 1019.6 |
| 20260905021548 | 47 | 116 | 0.0 | 0.0 | 0.00 | 0.00 | 0.00 | 66 | 1019.6 |
| 20260905021017 | 47 | 116 | 0.0 | 0.0 | 0.00 | 0.00 | 0.00 | 66 | 1019.7 |
| 20260905020516 | 47 | 116 | 0.0 | 0.0 | 0.00 | 0.00 | 0.00 | 66 | 1019.7 |
| 20260905020050 | 47 | 116 | 0.0 | 0.0 | 0.00 | 0.00 | 0.00 | 66 | 1019.7 |
| 20260905015021 | 48 | 116 | 0.0 | 0.0 | 0.00 | 0.00 | 0.00 | 65 | 1019.6 |
| 20260905014545 | 48 | 116 | 0.0 | 0.0 | 0.00 | 0.00 | 0.00 | 64 | 1019.7 |
| 20260905014021 | 48 | 116 | 0.0 | 0.0 | 0.00 | 0.00 | 0.00 | 64 | 1019.7 |
| 20260905013520 | 49 | 116 | 0.0 | 0.0 | 0.00 | 0.00 | 0.00 | 63 | 1019.6 |
| 20260905013051 | 49 | 116 | 0.0 | 0.0 | 0.00 | 0.00 | 0.00 | 63 | 1019.4 |
| 20260905012516 | 49 | 116 | 0.0 | 0.0 | 0.00 | 0.00 | 0.00 | 64 | 1019.5 |
| 20260905012016 | 49 | 116 | 0.0 | 0.0 | 0.00 | 0.00 | 0.00 | 62 | 1019.5 |
| 20260905011553 | 48 | 116 | 0.0 | 0.0 | 0.00 | 0.00 | 0.00 | 62 | 1019.4 |
| 20260905011020 | 49 | 116 | 0.0 | 0.0 | 0.00 | 0.00 | 0.00 | 63 | 1019.3 |
| 20260905010044 | 49 | 117 | 0.0 | 0.0 | 0.00 | 0.00 | 0.00 | 62 | 1019.4 |
| 20260905005523 | 49 | 116 | 0.0 | 0.0 | 0.00 | 0.00 | 0.00 | 62 | 1019.6 |
| 20260905005020 | 49 | 116 | 0.0 | 0.0 | 0.00 | 0.00 | 0.00 | 62 | 1019.5 |
| 20260905004550 | 50 | 117 | 0.0 | 0.0 | 0.00 | 0.00 | 0.00 | 63 | 1019.4 |